sat.trackr.live / text

‹ back to catalog

STARLINK-31168

NORAD 58798 · 2024-012M

PAYLOAD ACTIVE UNKNOWN

§ Identity

Operator
Country
US
Launch date
2024-01-15
Launch site
AFETR
Launch vehicle
Mass (kg)
RCS (m²)

Purposes: comms

External: N2YO · Heavens-Above · Gunter

§ Orbital elements

Epoch: 2026-09-20T09:26:08.104704Z

Period
94.27 min
Inclination
43.0019°
Eccentricity
0.0000820
Mean motion
15.27578781 rev/d
Perigee alt
482.5 km
Apogee alt
483.6 km
Semi-major
6,861.2 km
B*
-7.4710e-6
RAAN
145.6372°
Arg perigee
294.2998°
Mean anomaly
65.7768°
Rev number
15,101

§ Raw data

STARLINK-311681 58798U 24012M   26263.39314936 -.00000467  00000+0 -74710-5 0  99952 58798  43.0019 145.6372 0000820 294.2998  65.7768 15.27578781151015

JSON: /api/v1/satellites/58798 · /tle

For live sub-satellite position, see the globe view (requires WebGL).

§ Visibility from observer

Set your observer location to see the next 7 days of passes ≥ 10°. The values pass through the URL so the page stays shareable.

No JS? Fill the form by hand. The geolocation button needs JavaScript.